Location: Newark
(54.6833°N, 25.2833°E)
Time: 17:52:13
(UTC+00:00)

ISS - Visible Passes

Search period start: 23 October 2019 00:00
Search period end: 02 November 2019 00:00
Orbit: 411 x 421 km, 51.6° (Epoch: 24 October)

Date Brightness Start Highest point End Pass type
(mag) Time Alt. Az. Time Alt. Az. Time Alt. Az.
25 Oct -0.7 04:04:51 10° S 04:06:26 13° SE 04:08:00 10° ESE visible
27 Oct -1.5 04:02:51 10° SSW 04:05:32 22° SSE 04:08:13 10° E visible
28 Oct -1.2 03:14:52 10° S 03:17:06 17° SSE 03:19:20 10° ESE visible
29 Oct -0.9 02:28:21 12° SSE 02:28:41 12° SE 02:30:04 10° ESE visible
29 Oct -2.3 04:01:38 10° SW 04:04:43 34° SSE 04:07:49 10° E visible
30 Oct -2.0 03:14:51 20° SSW 03:16:12 27° SSE 03:19:07 10° E visible
31 Oct -1.4 02:28:21 20° SE 02:28:21 20° SE 02:30:20 10° E visible
31 Oct -2.9 04:01:14 14° WSW 04:03:57 45° S 04:07:12 10° E visible
01 Nov -2.8 03:14:40 34° SSW 03:15:22 40° SSE 03:18:33 10° E visible
